886  
ASUS42 KMHX 291925  
RWRMHX  
WEATHER ROUNDUP FOR EASTERN NORTH CAROLINA  
NATIONAL WEATHER SERVICE NEWPORT/MOREHEAD CITY NC  
300 PM EDT FRI APR 29 2016  
 
NOTE: "FAIR" INDICATES FEW OR NO CLOUDS BELOW 12,000 FEET  
WITH NO SIGNIFICANT WEATHER AND/OR S TO VISIBILITY
 
 
NCZ015>017-031-032-045>047-102-103-292000-  
NORTH COAST  
 
CITY SKY/WX TMP DP RH WIND PRES REMARKS
 
EDENTON CLOUDY 65 61 87 W8 29.99F  
ELIZABETH CITY CLOUDY 64 57 78 N8 29.99R  
KITTY HAWK CLOUDY 64 55 74 N12 29.96S  
MANTEO NOT AVBL  
 

 
 
NCZ045>047-081-094-103-104-292000-  
CENTRAL COAST  
 
CITY SKY/WX TMP DP RH WIND PRES REMARKS
 
FRISCO SUNNY 70 61 73 N8 29.94R  
SWANQUARTER NOT AVBL  
 

 
 
NCZ095-097-098-100-101-292000-  
SOUTHERN COAST  
 
CITY SKY/WX TMP DP RH WIND PRES REMARKS
 
BEAUFORT PTSUNNY 72 62 71 W6 29.95F  
CEDAR ISLAND NOT AVBL  
JACKSONVILLE PTSUNNY 72 60 66 NE8 29.96F  
PINEY ISLAND NOT AVBL  
WILMINGTON MOSUNNY 75 63 66 E12 29.96R  
 

 
 
NCZ011>013-027>030-043-044-078>080-089-090>093-098-292000-  
COASTAL PLAIN  
 
CITY SKY/WX TMP DP RH WIND PRES REMARKS
 
AHOSKIE CLOUDY 60 56 88 CALM 30.01F  
CLINTON MOSUNNY 75 62 64 E3 29.98F  
ELIZABETHTOWN SUNNY 80 55 41 N5 29.96S  
GOLDSBORO PTSUNNY 70 63 78 N8 29.98F  
GREENVILLE CLOUDY 64 59 82 N5 30.02F  
HAVELOCK PTSUNNY 72 62 71 NW9 29.98R  
KENANSVILLE MOSUNNY 71 58 62 CALM 30.00S  
KINSTON CLOUDY 68 59 73 N6 30.01R  
NEW BERN CLOUDY 69 59 70 N5 29.99S  
RICHLANDS MOSUNNY 72 60 66 NE8 29.98S  
ROCKY MOUNT CLOUDY 66 58 75 NE5 30.01F  
WASHINGTON CLOUDY 65 59 80 N5 29.99F  
WHITEVILLE MOSUNNY 82 59 45 E6 29.95S  
 

 
 
AMZ130-135-150-152-154-156-158-170-250-252-270-ANZ085-086-088-633-658-670-292000-  
MARINE OBSERVATIONS  
 
STATION/POSITION TIME TEMP WIND PRES WAVE SWELL
 
AIR SEA DIR/SP/G HT/PER HT/PER  
(UTC) (F) (DEG/KT/KT) (MB) (FT/S) (FT/S)  
CHESAPEAKE LIGHT 1900 54 360/ 15/ 16 1016.4  
64 E VA BEACH 1850 54 54 340/ 16/ 19 1013.8 4/ 8 2/ 8  
DUCK 1900 56 67 360/ 17/ 19 1014.6  
2 E DUCK 1811 59 N/A 4/ 6  
OREGON INLET 1900 61 63 340/ 13/ 19 1014.0  
13E OREGON INLT 1900 59 N/A 4/ 6 2/11  
HATTERAS CG 1900 66 69 330/ 14/ 16 1013.7  
DIAMOND BUOY 1850 65 75 360/ 14/ 16 1013.1 3/ 4 2/ 8  
CAPE LOOKOUT 1900 70 310/ 8/ 11 1013.9  
BEAUFORT LAB 1900 71 67 340/ 4/ 7 1013.5  
30 SE NEW RVR IN 1825 67 N/A 3/ 4  
27 SE WRIGHTSVLE 1908 67 69 30/ 10/ 14 1015.5  
5 SE WRIGHTSVLE 1908 67 68 100/ 12/ 16 1015.2  
225 S CAPE HAT 1850 72 71 210/ 16/ 17 1013.4 3/ 5 2/11  
41 SE CHARLESTON 1850 72 73 40/ 8/ 10 1014.2 2/ 9 2/ 9  
 

 
 
 
CLICK HERE TO GO TO PREVIOUS BULLETINS.

The Nexlab NC Page Main Text Page